When you browse on this site, cookies collect data to enhance your experience and personalize the content and advertising you see.
Visit our Privacy Policy to learn more. By continuing to use the site, you agree to this use of cookies and data.
  • în România
  • Lista ţărilor
  • Pe 7 zile
  • Temperatura apei
  • Hartă satelitară
  • Meteo pe hartă
  • Widget-uri
  • user-avatar
    Intrare

    Meteo pe oră la Algiers

    Astăzi, 18 Ianuarie, Vineri

    Timp Temperatura Precipitaţii Vânt Presiune Umiditate
    00:00 +10°C° 0 mm 5 m/s 749 mmHg 69%
    01:00 +11°C° 0.1 mm 4 m/s 749 mmHg 69%
    02:00 +11°C° 0.1 mm 4 m/s 749 mmHg 69%
    03:00 +10°C° 0.1 mm 4 m/s 749 mmHg 69%
    04:00 +10°C° 0.1 mm 4 m/s 749 mmHg 69%
    05:00 +10°C° 0.1 mm 4 m/s 749 mmHg 69%
    06:00 +10°C° 0.1 mm 4 m/s 750 mmHg 69%
    07:00 +11°C° 0.1 mm 4 m/s 750 mmHg 67%
    08:00 +11°C° 0.1 mm 4 m/s 750 mmHg 66%
    09:00 +12°C° 0.1 mm 4 m/s 750 mmHg 64%
    10:00 +13°C° 0 mm 5 m/s 750 mmHg 62%
    11:00 +13°C° 0 mm 5 m/s 750 mmHg 60%
    12:00 +14°C° 0 mm 5 m/s 750 mmHg 58%
    13:00 +14°C° 0 mm 5 m/s 750 mmHg 60%
    14:00 +14°C° 0 mm 5 m/s 749 mmHg 61%
    15:00 +14°C° 0 mm 5 m/s 749 mmHg 62%
    16:00 +13°C° 0.1 mm 5 m/s 749 mmHg 66%
    17:00 +12°C° 0.1 mm 4 m/s 749 mmHg 69%
    18:00 +11°C° 0.1 mm 4 m/s 749 mmHg 73%
    19:00 +11°C° 0.1 mm 3 m/s 750 mmHg 74%
    20:00 +11°C° 0.1 mm 3 m/s 750 mmHg 74%
    21:00 +12°C° 0.1 mm 2 m/s 750 mmHg 75%
    22:00 +12°C° 0.2 mm 2 m/s 750 mmHg 75%
    23:00 +10°C° 0.2 mm 2 m/s 750 mmHg 75%

    Mâine, 19 Ianuarie, Sâmbătă

    Timp Temperatura Precipitaţii Vânt Presiune Umiditate
    00:00 +10°C° 0.2 mm 2 m/s 750 mmHg 74%
    01:00 +10°C° 0.2 mm 2 m/s 750 mmHg 73%
    02:00 +10°C° 0.2 mm 3 m/s 749 mmHg 72%
    03:00 +10°C° 0.2 mm 3 m/s 749 mmHg 71%
    04:00 +10°C° 0.2 mm 3 m/s 749 mmHg 72%
    05:00 +10°C° 0.2 mm 3 m/s 749 mmHg 72%
    06:00 +10°C° 0.2 mm 3 m/s 749 mmHg 73%
    07:00 +10°C° 0.1 mm 4 m/s 749 mmHg 70%
    08:00 +11°C° 0.1 mm 4 m/s 750 mmHg 68%
    09:00 +12°C° 0.1 mm 4 m/s 750 mmHg 66%
    10:00 +12°C° 0 mm 5 m/s 750 mmHg 61%
    11:00 +13°C° 0 mm 5 m/s 750 mmHg 55%
    12:00 +14°C° 0 mm 5 m/s 750 mmHg 49%
    13:00 +14°C° 0 mm 6 m/s 749 mmHg 50%
    14:00 +14°C° 0 mm 6 m/s 749 mmHg 51%
    15:00 +14°C° 0 mm 6 m/s 749 mmHg 51%
    16:00 +13°C° 0 mm 5 m/s 749 mmHg 54%
    17:00 +12°C° 0 mm 4 m/s 749 mmHg 57%
    18:00 +11°C° 0 mm 3 m/s 749 mmHg 60%
    19:00 +11°C° 0 mm 3 m/s 749 mmHg 60%
    20:00 +11°C° 0 mm 3 m/s 749 mmHg 60%
    21:00 +11°C° 0 mm 3 m/s 749 mmHg 60%
    22:00 +11°C° 0 mm 3 m/s 749 mmHg 60%
    23:00 +11°C° 0 mm 3 m/s 748 mmHg 60%

    Poimâine, 20 Ianuarie, Duminică

    Timp Temperatura Precipitaţii Vânt Presiune Umiditate
    00:00 +11°C° 0 mm 4 m/s 748 mmHg 60%
    01:00 +11°C° 0 mm 4 m/s 747 mmHg 62%
    02:00 +11°C° 0 mm 4 m/s 747 mmHg 63%
    03:00 +11°C° 0 mm 4 m/s 747 mmHg 65%
    04:00 +11°C° 0.1 mm 4 m/s 746 mmHg 67%
    05:00 +10°C° 0.1 mm 5 m/s 746 mmHg 69%
    06:00 +10°C° 0.1 mm 5 m/s 745 mmHg 71%
    07:00 +10°C° 0.5 mm 5 m/s 745 mmHg 72%
    08:00 +12°C° 0.5 mm 5 m/s 745 mmHg 72%
    09:00 +12°C° 0.5 mm 5 m/s 745 mmHg 72%
    10:00 +13°C° 0.4 mm 6 m/s 745 mmHg 71%
    11:00 +13°C° 0.4 mm 6 m/s 745 mmHg 69%
    12:00 +14°C° 0.4 mm 6 m/s 744 mmHg 68%
    13:00 +14°C° 0.2 mm 6 m/s 744 mmHg 69%
    14:00 +14°C° 0.2 mm 6 m/s 744 mmHg 71%
    15:00 +14°C° 0.2 mm 5 m/s 743 mmHg 72%
    16:00 +13°C° 0.3 mm 5 m/s 744 mmHg 75%
    17:00 +13°C° 0.3 mm 5 m/s 744 mmHg 78%
    18:00 +12°C° 0.3 mm 4 m/s 744 mmHg 81%
    19:00 +12°C° 1 mm 5 m/s 745 mmHg 82%
    20:00 +11°C° 1 mm 6 m/s 745 mmHg 82%
    21:00 +11°C° 1 mm 6 m/s 746 mmHg 83%
    22:00 +10°C° 1.2 mm 6 m/s 746 mmHg 83%
    23:00 +10°C° 1.2 mm 7 m/s 747 mmHg 83%

    21 Ianuarie, Luni

    Timp Temperatura Precipitaţii Vânt Presiune Umiditate
    00:00 +10°C° 1.2 mm 7 m/s 747 mmHg 83%
    01:00 +10°C° 0.7 mm 6 m/s 747 mmHg 80%
    02:00 +10°C° 0.7 mm 6 m/s 748 mmHg 77%
    03:00 +10°C° 0.7 mm 6 m/s 748 mmHg 74%
    04:00 +10°C° 0.4 mm 5 m/s 748 mmHg 75%
    05:00 +10°C° 0.4 mm 4 m/s 748 mmHg 75%
    06:00 +10°C° 0.4 mm 4 m/s 749 mmHg 75%
    07:00 +10°C° 0.5 mm 3 m/s 749 mmHg 73%
    08:00 +11°C° 0.5 mm 3 m/s 750 mmHg 72%
    09:00 +11°C° 0.5 mm 3 m/s 750 mmHg 70%
    10:00 +11°C° 0.7 mm 3 m/s 750 mmHg 71%
    11:00 +11°C° 0.7 mm 3 m/s 750 mmHg 72%
    12:00 +11°C° 0.7 mm 3 m/s 751 mmHg 74%
    13:00 +11°C° 0.7 mm 3 m/s 751 mmHg 74%
    14:00 +10°C° 0.7 mm 3 m/s 750 mmHg 74%
    15:00 +10°C° 0.7 mm 2 m/s 750 mmHg 75%
    16:00 +10°C° 0.4 mm 2 m/s 751 mmHg 76%
    17:00 +10°C° 0.4 mm 2 m/s 751 mmHg 78%
    18:00 +9°C° 0.4 mm 2 m/s 752 mmHg 80%
    19:00 +9°C° 0.4 mm 2 m/s 752 mmHg 80%
    20:00 +9°C° 0.4 mm 2 m/s 752 mmHg 81%
    21:00 +9°C° 0.4 mm 2 m/s 753 mmHg 81%
    22:00 +9°C° 0.3 mm 2 m/s 753 mmHg 81%
    23:00 +8°C° 0.3 mm 2 m/s 752 mmHg 81%

    22 Ianuarie, Marţi

    Timp Temperatura Precipitaţii Vânt Presiune Umiditate
    00:00 +8°C° 0.3 mm 2 m/s 752 mmHg 81%
    01:00 +9°C° 0.7 mm 1 m/s 752 mmHg 81%
    02:00 +9°C° 0.7 mm 1 m/s 752 mmHg 82%
    03:00 +9°C° 0.7 mm 1 m/s 752 mmHg 83%
    04:00 +9°C° 1 mm 1 m/s 752 mmHg 83%
    05:00 +8°C° 1 mm 2 m/s 752 mmHg 84%
    06:00 +7°C° 1 mm 2 m/s 752 mmHg 85%
    07:00 +8°C° 0.1 mm 2 m/s 752 mmHg 81%
    08:00 +9°C° 0.1 mm 3 m/s 752 mmHg 76%
    09:00 +9°C° 0.1 mm 3 m/s 752 mmHg 72%
    10:00 +10°C° 0.3 mm 3 m/s 752 mmHg 69%
    11:00 +11°C° 0.3 mm 4 m/s 752 mmHg 65%
    12:00 +11°C° 0.3 mm 4 m/s 752 mmHg 62%
    13:00 +11°C° 0.6 mm 4 m/s 751 mmHg 62%
    14:00 +10°C° 0.6 mm 5 m/s 750 mmHg 61%
    15:00 +10°C° 0.6 mm 5 m/s 749 mmHg 61%
    16:00 +10°C° 0.2 mm 5 m/s 749 mmHg 65%
    17:00 +9°C° 0.2 mm 6 m/s 749 mmHg 68%
    18:00 +8°C° 0.2 mm 6 m/s 749 mmHg 72%
    19:00 +8°C° 0.2 mm 6 m/s 749 mmHg 70%
    20:00 +8°C° 0.2 mm 7 m/s 749 mmHg 68%
    21:00 +7°C° 0.2 mm 8 m/s 748 mmHg 66%
    22:00 +7°C° 0.1 mm 8 m/s 748 mmHg 66%
    23:00 +7°C° 0.1 mm 8 m/s 747 mmHg 65%

    23 Ianuarie, Miercuri

    Timp Temperatura Precipitaţii Vânt Presiune Umiditate
    00:00 +7°C° 0.1 mm 8 m/s 746 mmHg 65%
    01:00 +7°C° 0.9 mm 9 m/s 746 mmHg 69%
    02:00 +7°C° 0.9 mm 9 m/s 745 mmHg 74%
    03:00 +7°C° 0.9 mm 9 m/s 744 mmHg 78%
    04:00 +7°C° 1.9 mm 9 m/s 744 mmHg 79%
    05:00 +8°C° 1.9 mm 9 m/s 744 mmHg 79%
    06:00 +8°C° 1.9 mm 10 m/s 744 mmHg 79%
    07:00 +8°C° 0.7 mm 9 m/s 744 mmHg 74%
    08:00 +10°C° 0.7 mm 9 m/s 744 mmHg 69%
    09:00 +10°C° 0.7 mm 8 m/s 745 mmHg 64%
    10:00 +11°C° 0.1 mm 9 m/s 744 mmHg 61%
    11:00 +11°C° 0.1 mm 10 m/s 744 mmHg 59%
    12:00 +12°C° 0.1 mm 10 m/s 743 mmHg 57%
    13:00 +12°C° 0 mm 11 m/s 742 mmHg 56%
    14:00 +12°C° 0 mm 11 m/s 742 mmHg 55%
    15:00 +12°C° 0 mm 12 m/s 741 mmHg 55%
    16:00 +12°C° 0 mm 11 m/s 741 mmHg 57%
    17:00 +11°C° 0 mm 11 m/s 740 mmHg 59%
    18:00 +11°C° 0 mm 11 m/s 740 mmHg 61%
    19:00 +11°C° 0 mm 11 m/s 740 mmHg 64%
    20:00 +9°C° 0 mm 11 m/s 739 mmHg 67%
    21:00 +9°C° 0 mm 12 m/s 739 mmHg 70%
    22:00 +10°C° 0 mm 12 m/s 738 mmHg 69%
    23:00 +10°C° 0 mm 12 m/s 737 mmHg 69%
    Arată mai mult